Hibbing, MN

3:53 AM CDT on April 23, 2017 (GMT -0500)
Chisholm-hibbing

Weather History for KHIB - March, 2013

Change the Weather History Date:

Sunday, March 3, 2013

  Actual Average Record
Temperature  
Mean Temperature 15 °F -  
Max Temperature 30 °F 28 °F 41 °F (1973)
Min Temperature 0 °F 7 °F -32 °F (2014)
Degree Days  
Heating Degree Days 50    
Moisture  
Dew Point 2 °F    
Average Humidity 56    
Maximum Humidity 83    
Minimum Humidity 28    
Precipitation  
Precipitation 0.00 in - - ()
Sea Level Pressure  
Sea Level Pressure 30.14 in    
Wind  
Wind Speed 4 mph (SE)    
Max Wind Speed 12 mph    
Max Gust Speed 17 mph    
Visibility 10 miles    
Events      
Averages and records for this station are not official NWS values.
T = Trace of Precipitation, MM = Missing Value Source: NWS Daily Summary

Daily Weather History Graph

Daily Weather History Graph

Search for Another Location

Airport or City:

Trip Planner

Search our weather history database for the weather conditions in past years. The results will help you decide how hot, cold, wet, or windy it might be!

Date:

Astronomy

Mar. 03, 2013 Rise Set
Actual Time 6:47 AM CST 5:59 PM CST
Civil Twilight 6:16 AM CST 6:30 PM CST
Nautical Twilight 5:41 AM CST 7:06 PM CST
Astronomical Twilight 5:05 AM CST 7:41 PM CST
Moon 12:04 AM CST (3/3) 9:35 AM CST (3/3)
Length of Visible Light 12h 13m
Length of Day
11h 12m
Waning Gibbous, 63% of the Moon is Illuminated
Mar 3
Waning Gibbous
Mar 4
Last Quarter
Mar 11
New
Mar 19
First Quarter
Mar 27
Full

Hourly Weather History & Observations

Time (CST) Temp. Windchill Dew Point Humidity Pressure Visibility Wind Dir Wind Speed Gust Speed Precip Events Conditions
12:53 AM 1.9 °F - -4.0 °F 76% 30.21 in 10.0 mi Calm Calm - N/A   Overcast
1:53 AM 3.0 °F - -2.9 °F 76% 30.20 in 10.0 mi Calm Calm - N/A   Overcast
2:53 AM 1.0 °F - -5.1 °F 75% 30.20 in 10.0 mi Calm Calm - N/A   Mostly Cloudy
3:53 AM -0.0 °F - -5.1 °F 79% 30.19 in 10.0 mi Calm Calm - N/A   Mostly Cloudy
4:53 AM 1.9 °F - -4.0 °F 76% 30.19 in 10.0 mi Calm Calm - N/A   Overcast
5:53 AM 5.0 °F - -0.9 °F 76% 30.19 in 10.0 mi Calm Calm - N/A   Overcast
6:53 AM 5.0 °F - -0.0 °F 80% 30.20 in 10.0 mi Calm Calm - N/A   Overcast
7:53 AM 8.1 °F - 3.9 °F 83% 30.19 in 10.0 mi Calm Calm - N/A   Overcast
8:53 AM 16.0 °F 5.3 °F 3.9 °F 59% 30.17 in 10.0 mi SE 8.1 mph - N/A   Mostly Cloudy
9:53 AM 21.0 °F 12.4 °F 1.0 °F 42% 30.16 in 10.0 mi SE 6.9 mph - N/A   Clear
10:53 AM 26.1 °F 16.2 °F -0.9 °F 31% 30.15 in 10.0 mi SSE 10.4 mph - N/A   Clear
11:53 AM 28.0 °F 18.6 °F 1.9 °F 33% 30.14 in 10.0 mi SE 10.4 mph 17.3 mph N/A   Clear
12:53 PM 28.9 °F 21.1 °F -0.9 °F 28% 30.12 in 10.0 mi South 8.1 mph 17.3 mph N/A   Clear
1:53 PM 30.0 °F 20.5 °F 1.0 °F 29% 30.09 in 10.0 mi SE 11.5 mph 16.1 mph N/A   Clear
2:53 PM 30.9 °F 22.2 °F 1.9 °F 29% 30.09 in 10.0 mi ESE 10.4 mph 17.3 mph N/A   Clear
5:53 PM 28.0 °F 20.0 °F 3.9 °F 36% 30.09 in 10.0 mi SE 8.1 mph - N/A   Overcast
6:53 PM 25.0 °F 16.3 °F 6.1 °F 45% 30.10 in 10.0 mi ESE 8.1 mph - N/A   Overcast
7:53 PM 24.1 °F 14.4 °F 7.0 °F 48% 30.10 in 10.0 mi SE 9.2 mph - N/A   Scattered Clouds
8:53 PM 23.0 °F 12.4 °F 9.0 °F 55% 30.10 in 10.0 mi SE 10.4 mph - N/A   Overcast
9:53 PM 19.0 °F 11.1 °F 5.0 °F 54% 30.10 in 10.0 mi ESE 5.8 mph - N/A   Mostly Cloudy
10:53 PM 19.0 °F 9.0 °F 6.1 °F 57% 30.10 in 10.0 mi ESE 8.1 mph - N/A   Overcast
11:53 PM 19.9 °F 10.1 °F 10.0 °F 65% 30.10 in 10.0 mi ESE 8.1 mph - N/A   Overcast